Time,TemperatureF,DewpointF,PressureIn,WindDirection,WindDirectionDegrees,WindSpeedMPH,WindSpeedGustMPH,Humidity,HourlyPrecipIn,Conditions,Clouds,dailyrainin,SoftwareType,DateUTC
2013-01-13 00:02:00,22.0,20.2,30.01,WSW,248,0.0,0.0,93,0.00,,,0.00,WUHU216HW,2013-01-13 08:02:00,
2013-01-13 00:07:00,22.0,20.2,30.01,WSW,248,0.0,0.0,93,0.00,,,0.00,WUHU216HW,2013-01-13 08:07:00,
2013-01-13 00:12:00,21.8,20.0,30.01,WSW,248,0.0,0.0,93,0.00,,,0.00,WUHU216HW,2013-01-13 08:12:00,
2013-01-13 00:17:00,21.8,20.0,30.00,WSW,248,0.0,0.0,93,0.00,,,0.00,WUHU216HW,2013-01-13 08:17:00,
2013-01-13 00:22:00,21.6,19.8,30.00,WSW,248,0.0,0.0,93,0.00,,,0.00,WUHU216HW,2013-01-13 08:22:00,
2013-01-13 00:27:00,21.4,19.6,30.00,WSW,248,0.0,0.0,93,0.00,,,0.00,WUHU216HW,2013-01-13 08:27:00,
2013-01-13 00:32:00,21.6,19.6,30.01,WSW,248,0.0,0.0,92,0.00,,,0.00,WUHU216HW,2013-01-13 08:32:00,
2013-01-13 00:37:00,21.6,19.6,30.01,WSW,248,0.0,0.0,92,0.00,,,0.00,WUHU216HW,2013-01-13 08:37:00,
2013-01-13 00:42:00,21.6,19.6,30.01,WSW,248,0.0,0.0,92,0.00,,,0.00,WUHU216HW,2013-01-13 08:42:00,
2013-01-13 00:47:00,21.6,19.6,30.00,WSW,248,0.0,0.0,92,0.00,,,0.00,WUHU216HW,2013-01-13 08:47:00,
2013-01-13 00:52:00,21.6,19.6,30.01,WSW,248,0.0,0.0,92,0.00,,,0.00,WUHU216HW,2013-01-13 08:52:00,
2013-01-13 00:57:00,21.6,19.6,30.01,WSW,248,0.0,0.0,92,0.00,,,0.00,WUHU216HW,2013-01-13 08:57:00,
2013-01-13 01:02:00,21.4,19.5,30.01,WSW,248,0.0,0.0,92,0.00,,,0.00,WUHU216HW,2013-01-13 09:02:00,
2013-01-13 01:07:00,21.4,19.5,30.01,WSW,248,0.0,0.0,92,0.00,,,0.00,WUHU216HW,2013-01-13 09:07:00,
2013-01-13 01:12:00,21.4,19.5,30.01,WSW,248,0.0,0.0,92,0.00,,,0.00,WUHU216HW,2013-01-13 09:12:00,
2013-01-13 01:17:00,21.4,19.5,30.00,WSW,248,0.0,0.0,92,0.00,,,0.00,WUHU216HW,2013-01-13 09:17:00,
2013-01-13 01:22:00,21.2,19.4,30.00,WSW,248,0.0,0.0,93,0.00,,,0.00,WUHU216HW,2013-01-13 09:22:00,
2013-01-13 01:27:00,21.2,19.3,30.00,WSW,248,0.0,0.0,92,0.00,,,0.00,WUHU216HW,2013-01-13 09:27:00,
2013-01-13 01:32:00,21.1,19.1,30.01,WSW,248,0.0,0.0,92,0.00,,,0.00,WUHU216HW,2013-01-13 09:32:00,
2013-01-13 01:37:00,21.1,19.3,30.01,WSW,248,0.0,0.0,93,0.00,,,0.00,WUHU216HW,2013-01-13 09:37:00,
2013-01-13 01:42:00,21.1,19.3,30.00,WSW,248,0.0,0.0,93,0.00,,,0.00,WUHU216HW,2013-01-13 09:42:00,
2013-01-13 01:47:00,21.2,19.4,30.00,WSW,248,0.0,0.0,93,0.00,,,0.00,WUHU216HW,2013-01-13 09:47:00,
2013-01-13 01:52:00,21.1,19.3,30.00,WSW,248,0.0,0.0,93,0.00,,,0.00,WUHU216HW,2013-01-13 09:52:00,
2013-01-13 01:57:00,21.2,19.4,30.00,WSW,248,0.0,0.0,93,0.00,,,0.00,WUHU216HW,2013-01-13 09:57:00,
2013-01-13 02:02:00,21.2,19.4,30.01,WSW,248,0.0,0.0,93,0.00,,,0.00,WUHU216HW,2013-01-13 10:02:00,
2013-01-13 02:07:00,21.2,19.4,30.01,WSW,248,0.0,0.0,93,0.00,,,0.00,WUHU216HW,2013-01-13 10:07:00,
2013-01-13 02:12:00,21.1,19.3,30.01,WSW,248,0.0,0.0,93,0.00,,,0.00,WUHU216HW,2013-01-13 10:12:00,
2013-01-13 02:17:00,20.9,19.1,30.01,WSW,248,0.0,0.0,93,0.00,,,0.00,WUHU216HW,2013-01-13 10:17:00,
2013-01-13 02:22:00,20.9,19.1,30.01,WSW,248,0.0,0.0,93,0.00,,,0.00,WUHU216HW,2013-01-13 10:22:00,
2013-01-13 02:27:00,20.9,19.1,30.01,WSW,248,0.0,0.0,93,0.00,,,0.00,WUHU216HW,2013-01-13 10:27:00,
2013-01-13 02:32:00,20.9,19.1,30.01,WSW,248,0.0,0.0,93,0.00,,,0.00,WUHU216HW,2013-01-13 10:32:00,
2013-01-13 02:37:00,20.7,18.9,30.01,WSW,248,0.0,0.0,93,0.00,,,0.00,WUHU216HW,2013-01-13 10:37:00,
2013-01-13 02:42:00,20.7,18.9,30.01,WSW,248,0.0,0.0,93,0.00,,,0.00,WUHU216HW,2013-01-13 10:42:00,
2013-01-13 02:47:00,20.7,18.9,30.01,WSW,248,0.0,0.0,93,0.00,,,0.00,WUHU216HW,2013-01-13 10:47:00,
2013-01-13 02:52:00,20.7,18.9,30.01,WSW,248,0.0,0.0,93,0.00,,,0.00,WUHU216HW,2013-01-13 10:52:00,
2013-01-13 02:57:00,20.7,18.9,30.01,WSW,248,0.0,0.0,93,0.00,,,0.00,WUHU216HW,2013-01-13 10:57:00,
2013-01-13 03:02:00,20.7,18.9,30.01,WSW,248,0.0,0.0,93,0.00,,,0.00,WUHU216HW,2013-01-13 11:02:00,
2013-01-13 03:07:00,20.5,18.7,30.01,WSW,248,0.0,0.0,93,0.00,,,0.00,WUHU216HW,2013-01-13 11:07:00,
2013-01-13 03:12:00,20.5,18.7,30.01,WSW,248,0.0,0.0,93,0.00,,,0.00,WUHU216HW,2013-01-13 11:12:00,
2013-01-13 03:17:00,20.5,18.7,30.01,WSW,248,0.0,0.0,93,0.00,,,0.00,WUHU216HW,2013-01-13 11:17:00,
2013-01-13 03:22:00,20.5,18.7,30.01,WSW,248,0.0,0.0,93,0.00,,,0.00,WUHU216HW,2013-01-13 11:22:00,
2013-01-13 03:27:00,20.3,18.5,30.01,WSW,248,0.0,0.0,93,0.00,,,0.00,WUHU216HW,2013-01-13 11:27:00,
2013-01-13 03:32:00,20.3,18.5,30.01,WSW,248,0.0,0.0,93,0.00,,,0.00,WUHU216HW,2013-01-13 11:32:00,
2013-01-13 03:37:00,20.2,18.4,30.01,WSW,248,0.0,0.0,93,0.00,,,0.00,WUHU216HW,2013-01-13 11:37:00,
2013-01-13 03:42:00,20.2,18.4,30.00,WSW,248,0.0,0.0,93,0.00,,,0.00,WUHU216HW,2013-01-13 11:42:00,
2013-01-13 03:47:00,20.2,18.4,30.00,WSW,248,0.0,0.0,93,0.00,,,0.00,WUHU216HW,2013-01-13 11:47:00,
2013-01-13 03:52:00,20.2,18.4,30.00,WSW,248,0.0,0.0,93,0.00,,,0.00,WUHU216HW,2013-01-13 11:52:00,
2013-01-13 03:57:00,20.0,18.2,29.99,WSW,248,0.0,0.0,93,0.00,,,0.00,WUHU216HW,2013-01-13 11:57:00,
2013-01-13 04:02:00,19.8,18.0,30.00,WSW,248,0.0,0.0,93,0.00,,,0.00,WUHU216HW,2013-01-13 12:02:00,
2013-01-13 04:07:00,19.8,18.0,29.99,WSW,248,0.0,0.0,93,0.00,,,0.00,WUHU216HW,2013-01-13 12:07:00,
2013-01-13 04:12:00,19.8,18.0,29.99,WSW,248,0.0,0.0,93,0.00,,,0.00,WUHU216HW,2013-01-13 12:12:00,
2013-01-13 04:17:00,19.8,18.0,30.00,WSW,248,0.0,0.0,93,0.00,,,0.00,WUHU216HW,2013-01-13 12:17:00,
2013-01-13 04:22:00,19.8,18.0,30.00,WSW,248,0.0,0.0,93,0.00,,,0.00,WUHU216HW,2013-01-13 12:22:00,
2013-01-13 04:27:00,20.0,18.2,30.00,WSW,248,0.0,0.0,93,0.00,,,0.00,WUHU216HW,2013-01-13 12:27:00,
2013-01-13 04:32:00,20.0,18.2,29.99,WSW,248,0.0,0.0,93,0.00,,,0.00,WUHU216HW,2013-01-13 12:32:00,
2013-01-13 04:37:00,20.0,18.2,29.99,WSW,248,0.0,0.0,93,0.00,,,0.00,WUHU216HW,2013-01-13 12:37:00,
2013-01-13 04:42:00,20.0,18.2,29.99,WSW,248,0.0,0.0,93,0.00,,,0.00,WUHU216HW,2013-01-13 12:42:00,
2013-01-13 04:47:00,20.0,18.2,30.00,WSW,248,0.0,0.0,93,0.00,,,0.00,WUHU216HW,2013-01-13 12:47:00,
2013-01-13 04:52:00,20.0,18.2,30.00,WSW,248,0.0,0.0,93,0.00,,,0.00,WUHU216HW,2013-01-13 12:52:00,
2013-01-13 04:57:00,20.0,18.2,30.00,WSW,248,0.0,0.0,93,0.00,,,0.00,WUHU216HW,2013-01-13 12:57:00,
2013-01-13 05:02:00,20.0,18.2,30.00,WSW,248,0.0,0.0,93,0.00,,,0.00,WUHU216HW,2013-01-13 13:02:00,
2013-01-13 05:08:00,20.0,18.2,30.00,WSW,248,0.0,0.0,93,0.00,,,0.00,WUHU216HW,2013-01-13 13:08:00,
2013-01-13 05:12:00,20.0,18.2,30.00,WSW,248,0.0,0.0,93,0.00,,,0.00,WUHU216HW,2013-01-13 13:12:00,
2013-01-13 05:17:00,20.0,18.2,30.00,WSW,248,0.0,0.0,93,0.00,,,0.00,WUHU216HW,2013-01-13 13:17:00,
2013-01-13 05:23:00,20.0,18.2,30.00,WSW,248,0.0,0.0,93,0.00,,,0.00,WUHU216HW,2013-01-13 13:23:00,
2013-01-13 05:28:00,19.8,18.0,30.00,WSW,248,0.0,0.0,93,0.00,,,0.00,WUHU216HW,2013-01-13 13:28:00,
2013-01-13 05:33:00,19.8,18.0,29.99,WSW,248,0.0,0.0,93,0.00,,,0.00,WUHU216HW,2013-01-13 13:33:00,
2013-01-13 05:38:00,19.8,18.0,30.00,WSW,248,0.0,0.0,93,0.00,,,0.00,WUHU216HW,2013-01-13 13:38:00,
2013-01-13 05:43:00,19.8,18.0,30.00,WSW,248,0.0,0.0,93,0.00,,,0.00,WUHU216HW,2013-01-13 13:43:00,
2013-01-13 05:48:00,19.8,18.0,30.00,WSW,248,0.0,0.0,93,0.00,,,0.00,WUHU216HW,2013-01-13 13:48:00,
2013-01-13 05:53:00,19.8,18.0,30.00,WSW,248,0.0,0.0,93,0.00,,,0.00,WUHU216HW,2013-01-13 13:53:00,
2013-01-13 05:58:00,19.8,18.0,30.01,WSW,248,0.0,0.0,93,0.00,,,0.00,WUHU216HW,2013-01-13 13:58:00,
2013-01-13 06:03:00,19.8,18.0,30.01,WSW,248,0.0,0.0,93,0.00,,,0.00,WUHU216HW,2013-01-13 14:03:00,
2013-01-13 06:07:00,19.8,18.0,30.01,WSW,248,0.0,0.0,93,0.00,,,0.00,WUHU216HW,2013-01-13 14:07:00,
2013-01-13 06:12:00,19.8,18.0,30.01,WSW,248,0.0,0.0,93,0.00,,,0.00,WUHU216HW,2013-01-13 14:12:00,
2013-01-13 06:17:00,19.8,18.0,30.01,WSW,248,0.0,0.0,93,0.00,,,0.00,WUHU216HW,2013-01-13 14:17:00,
2013-01-13 06:23:00,19.8,18.0,30.01,WSW,248,0.0,0.0,93,0.00,,,0.00,WUHU216HW,2013-01-13 14:23:00,
2013-01-13 06:28:00,19.8,18.0,30.01,WSW,248,0.0,0.0,93,0.00,,,0.00,WUHU216HW,2013-01-13 14:28:00,
2013-01-13 06:33:00,19.8,18.0,30.01,WSW,248,0.0,0.0,93,0.00,,,0.00,WUHU216HW,2013-01-13 14:33:00,
2013-01-13 06:38:00,19.8,18.0,30.01,WSW,248,0.0,0.0,93,0.00,,,0.00,WUHU216HW,2013-01-13 14:38:00,
2013-01-13 06:43:00,19.8,18.0,30.01,WSW,248,0.0,0.0,93,0.00,,,0.00,WUHU216HW,2013-01-13 14:43:00,
2013-01-13 06:48:00,19.4,17.6,30.01,WSW,248,0.0,0.0,93,0.00,,,0.00,WUHU216HW,2013-01-13 14:48:00,
2013-01-13 06:53:00,19.4,17.6,30.02,WSW,248,0.0,0.0,93,0.00,,,0.00,WUHU216HW,2013-01-13 14:53:00,
2013-01-13 06:58:00,19.4,17.6,30.02,WSW,248,0.0,0.0,93,0.00,,,0.00,WUHU216HW,2013-01-13 14:58:00,
2013-01-13 07:03:00,19.4,17.6,30.02,WSW,248,0.0,0.0,93,0.00,,,0.00,WUHU216HW,2013-01-13 15:03:00,
2013-01-13 07:08:00,19.4,17.6,30.02,WSW,248,0.0,0.0,93,0.00,,,0.00,WUHU216HW,2013-01-13 15:08:00,
2013-01-13 07:13:00,19.4,17.6,30.03,WSW,248,0.0,0.0,93,0.00,,,0.00,WUHU216HW,2013-01-13 15:13:00,
2013-01-13 07:18:00,19.4,17.6,30.03,WSW,248,0.0,0.0,93,0.00,,,0.00,WUHU216HW,2013-01-13 15:18:00,
2013-01-13 07:23:00,19.4,17.6,30.03,WSW,248,0.0,0.0,93,0.00,,,0.00,WUHU216HW,2013-01-13 15:23:00,
2013-01-13 07:28:00,19.3,17.5,30.03,WSW,248,0.0,0.0,93,0.00,,,0.00,WUHU216HW,2013-01-13 15:28:00,
2013-01-13 07:33:00,19.3,17.5,30.04,WSW,248,0.0,0.0,93,0.00,,,0.00,WUHU216HW,2013-01-13 15:33:00,
2013-01-13 07:38:00,19.8,18.0,30.04,WSW,248,0.0,0.0,93,0.00,,,0.00,WUHU216HW,2013-01-13 15:38:00,
2013-01-13 07:43:00,19.8,18.0,30.04,WSW,248,0.0,0.0,93,0.00,,,0.00,WUHU216HW,2013-01-13 15:43:00,
2013-01-13 07:48:00,19.8,18.0,30.04,WSW,248,0.0,0.0,93,0.00,,,0.00,WUHU216HW,2013-01-13 15:48:00,
2013-01-13 07:53:00,19.6,17.8,30.04,WSW,248,0.0,0.0,93,0.00,,,0.00,WUHU216HW,2013-01-13 15:53:00,
2013-01-13 07:58:00,19.4,17.6,30.03,WSW,248,0.0,0.0,93,0.00,,,0.00,WUHU216HW,2013-01-13 15:58:00,
2013-01-13 08:03:00,19.4,17.6,30.03,WSW,248,0.0,0.0,93,0.00,,,0.00,WUHU216HW,2013-01-13 16:03:00,
2013-01-13 08:08:00,19.4,17.6,30.03,WSW,248,0.0,0.0,93,0.00,,,0.00,WUHU216HW,2013-01-13 16:08:00,
2013-01-13 08:13:00,19.4,17.6,30.04,WSW,248,0.0,0.0,93,0.00,,,0.00,WUHU216HW,2013-01-13 16:13:00,
2013-01-13 08:18:00,19.4,17.6,30.04,WSW,248,0.0,0.0,93,0.00,,,0.00,WUHU216HW,2013-01-13 16:18:00,
2013-01-13 08:23:00,19.4,17.6,30.03,WSW,248,0.0,0.0,93,0.00,,,0.00,WUHU216HW,2013-01-13 16:23:00,
2013-01-13 08:28:00,19.4,17.6,30.04,WSW,248,0.0,0.0,93,0.00,,,0.00,WUHU216HW,2013-01-13 16:28:00,
2013-01-13 08:33:00,19.6,17.8,30.04,WSW,248,0.0,0.0,93,0.00,,,0.00,WUHU216HW,2013-01-13 16:33:00,
2013-01-13 08:38:00,19.8,18.0,30.03,WSW,248,0.0,0.0,93,0.00,,,0.00,WUHU216HW,2013-01-13 16:38:00,
2013-01-13 08:43:00,20.0,18.2,30.03,WSW,248,0.0,0.0,93,0.00,,,0.00,WUHU216HW,2013-01-13 16:43:00,
2013-01-13 08:48:00,20.2,18.4,30.03,WSW,248,0.0,0.0,93,0.00,,,0.00,WUHU216HW,2013-01-13 16:48:00,
2013-01-13 08:53:00,20.2,18.4,30.03,WSW,248,0.0,0.0,93,0.00,,,0.00,WUHU216HW,2013-01-13 16:53:00,
2013-01-13 08:58:00,20.5,18.7,30.03,WSW,248,0.0,0.0,93,0.00,,,0.00,WUHU216HW,2013-01-13 16:58:00,
2013-01-13 09:03:00,20.5,18.7,30.04,WSW,248,0.0,0.0,93,0.00,,,0.00,WUHU216HW,2013-01-13 17:03:00,
2013-01-13 09:08:00,20.9,19.1,30.04,WSW,248,0.0,0.0,93,0.00,,,0.00,WUHU216HW,2013-01-13 17:08:00,
2013-01-13 09:13:00,21.1,19.3,30.04,WSW,248,0.0,0.0,93,0.00,,,0.00,WUHU216HW,2013-01-13 17:13:00,
2013-01-13 09:18:00,21.2,19.4,30.04,WSW,248,0.0,0.0,93,0.00,,,0.00,WUHU216HW,2013-01-13 17:18:00,
2013-01-13 09:23:00,21.2,19.4,30.04,WSW,248,0.0,0.0,93,0.00,,,0.00,WUHU216HW,2013-01-13 17:23:00,
2013-01-13 09:28:00,21.4,19.6,30.04,WSW,248,0.0,0.0,93,0.00,,,0.00,WUHU216HW,2013-01-13 17:28:00,
2013-01-13 09:33:00,21.6,19.8,30.04,WSW,248,0.0,0.0,93,0.00,,,0.00,WUHU216HW,2013-01-13 17:33:00,
2013-01-13 09:38:00,21.8,20.0,30.04,WSW,248,0.0,0.0,93,0.00,,,0.00,WUHU216HW,2013-01-13 17:38:00,
2013-01-13 09:43:00,22.0,20.2,30.04,WSW,248,0.0,0.0,93,0.00,,,0.00,WUHU216HW,2013-01-13 17:43:00,
2013-01-13 09:48:00,22.1,20.3,30.04,WSW,248,0.0,0.0,93,0.00,,,0.00,WUHU216HW,2013-01-13 17:48:00,
2013-01-13 09:53:00,22.3,20.5,30.04,WSW,248,0.0,0.0,93,0.00,,,0.00,WUHU216HW,2013-01-13 17:53:00,
2013-01-13 09:58:00,22.5,21.0,30.04,WSW,248,0.0,0.0,94,0.00,,,0.00,WUHU216HW,2013-01-13 17:58:00,
2013-01-13 10:03:00,22.7,21.2,30.04,WSW,248,0.0,0.0,94,0.00,,,0.00,WUHU216HW,2013-01-13 18:03:00,
2013-01-13 10:08:00,22.7,21.2,30.04,WSW,248,0.0,0.0,94,0.00,,,0.00,WUHU216HW,2013-01-13 18:08:00,
2013-01-13 10:13:00,22.9,21.3,30.05,WSW,248,0.0,0.0,94,0.00,,,0.00,WUHU216HW,2013-01-13 18:13:00,
2013-01-13 10:18:00,23.0,21.5,30.05,WSW,248,0.0,0.0,94,0.00,,,0.00,WUHU216HW,2013-01-13 18:18:00,
2013-01-13 10:23:00,23.2,21.7,30.05,WSW,248,0.0,0.0,94,0.00,,,0.00,WUHU216HW,2013-01-13 18:23:00,
2013-01-13 10:28:00,23.4,21.9,30.05,WSW,248,0.0,0.0,94,0.00,,,0.00,WUHU216HW,2013-01-13 18:28:00,
2013-01-13 10:33:00,23.8,22.2,30.05,WSW,248,0.0,0.0,94,0.00,,,0.00,WUHU216HW,2013-01-13 18:33:00,
2013-01-13 10:38:00,23.9,22.4,30.05,WSW,248,0.0,0.0,94,0.00,,,0.00,WUHU216HW,2013-01-13 18:38:00,
2013-01-13 10:43:00,24.3,22.8,30.05,WSW,248,0.0,0.0,94,0.00,,,0.00,WUHU216HW,2013-01-13 18:43:00,
2013-01-13 10:48:00,24.5,23.0,30.04,WSW,248,0.0,0.0,94,0.00,,,0.00,WUHU216HW,2013-01-13 18:48:00,
2013-01-13 10:52:00,24.8,23.3,30.05,WSW,248,0.0,0.0,94,0.00,,,0.00,WUHU216HW,2013-01-13 18:52:00,
2013-01-13 10:57:00,25.0,23.5,30.04,WSW,248,0.0,0.0,94,0.00,,,0.00,WUHU216HW,2013-01-13 18:57:00,
2013-01-13 11:02:00,25.4,23.9,30.04,WSW,248,0.0,0.0,94,0.00,,,0.00,WUHU216HW,2013-01-13 19:02:00,
2013-01-13 11:07:00,25.6,24.0,30.04,WSW,248,0.0,1.6,94,0.00,,,0.00,WUHU216HW,2013-01-13 19:07:00,
2013-01-13 11:12:00,25.9,24.4,30.03,WSW,248,0.9,1.6,94,0.00,,,0.00,WUHU216HW,2013-01-13 19:12:00,
2013-01-13 11:17:00,26.3,24.8,30.03,WSW,248,0.4,1.1,94,0.00,,,0.00,WUHU216HW,2013-01-13 19:17:00,
2013-01-13 11:22:00,26.5,24.9,30.03,WSW,248,0.7,1.1,94,0.00,,,0.00,WUHU216HW,2013-01-13 19:22:00,
2013-01-13 11:27:00,26.6,25.1,30.03,WSW,248,0.0,1.1,94,0.00,,,0.00,WUHU216HW,2013-01-13 19:27:00,
2013-01-13 11:32:00,27.0,25.5,30.03,WSW,248,0.9,1.3,94,0.00,,,0.00,WUHU216HW,2013-01-13 19:32:00,
2013-01-13 11:37:00,27.0,25.5,30.03,WSW,248,0.0,1.8,94,0.00,,,0.00,WUHU216HW,2013-01-13 19:37:00,
2013-01-13 11:42:00,27.2,25.7,30.03,WSW,248,0.0,1.8,94,0.00,,,0.00,WUHU216HW,2013-01-13 19:42:00,
2013-01-13 11:48:00,27.4,25.8,30.03,WSW,248,0.2,0.4,94,0.00,,,0.00,WUHU216HW,2013-01-13 19:48:00,
2013-01-13 11:52:00,27.5,26.0,30.03,WSW,248,0.0,0.9,94,0.00,,,0.00,WUHU216HW,2013-01-13 19:52:00,
2013-01-13 11:57:00,27.7,26.2,30.03,WSW,248,0.0,0.9,94,0.00,,,0.00,WUHU216HW,2013-01-13 19:57:00,
2013-01-13 12:02:00,28.3,26.7,30.03,WSW,248,0.0,0.7,94,0.00,,,0.00,WUHU216HW,2013-01-13 20:02:00,
2013-01-13 12:07:00,28.4,26.9,30.04,WSW,248,0.0,1.1,94,0.00,,,0.00,WUHU216HW,2013-01-13 20:07:00,
2013-01-13 12:12:00,28.8,27.5,30.03,WSW,248,0.0,1.1,95,0.00,,,0.00,WUHU216HW,2013-01-13 20:12:00,
2013-01-13 12:17:00,29.2,27.9,30.03,WSW,248,0.0,0.9,95,0.00,,,0.00,WUHU216HW,2013-01-13 20:17:00,
2013-01-13 12:22:00,29.5,28.3,30.03,WSW,248,0.4,1.1,95,0.00,,,0.00,WUHU216HW,2013-01-13 20:22:00,
2013-01-13 12:27:00,29.9,28.6,30.03,WSW,248,0.4,1.1,95,0.00,,,0.00,WUHU216HW,2013-01-13 20:27:00,
2013-01-13 12:32:00,30.1,28.8,30.03,WSW,248,0.2,1.1,95,0.00,,,0.00,WUHU216HW,2013-01-13 20:32:00,
2013-01-13 12:37:00,30.2,29.0,30.02,WSW,248,0.0,0.4,95,0.00,,,0.00,WUHU216HW,2013-01-13 20:37:00,
2013-01-13 12:42:00,30.6,29.3,30.02,WSW,248,0.2,0.7,95,0.00,,,0.00,WUHU216HW,2013-01-13 20:42:00,
2013-01-13 12:47:00,30.6,29.3,30.01,WSW,248,0.0,0.7,95,0.00,,,0.00,WUHU216HW,2013-01-13 20:47:00,
2013-01-13 12:52:00,30.6,29.1,30.01,WSW,248,0.4,0.4,94,0.00,,,0.00,WUHU216HW,2013-01-13 20:52:00,
2013-01-13 12:57:00,30.6,29.1,30.01,WSW,248,0.0,0.9,94,0.01,,,0.01,WUHU216HW,2013-01-13 20:57:00,
2013-01-13 13:02:00,30.8,29.5,30.02,WSW,248,0.4,1.1,95,0.01,,,0.01,WUHU216HW,2013-01-13 21:02:00,
2013-01-13 13:07:00,30.6,29.1,30.01,WSW,248,0.7,1.6,94,0.01,,,0.01,WUHU216HW,2013-01-13 21:07:00,
2013-01-13 13:12:00,30.8,29.3,30.01,WSW,248,0.0,1.6,94,0.01,,,0.01,WUHU216HW,2013-01-13 21:12:00,
2013-01-13 13:17:00,31.0,29.4,30.01,WSW,248,0.0,1.1,94,0.01,,,0.01,WUHU216HW,2013-01-13 21:17:00,
2013-01-13 13:22:00,31.1,29.6,30.01,WSW,248,0.0,0.0,94,0.01,,,0.01,WUHU216HW,2013-01-13 21:22:00,
2013-01-13 13:27:00,31.3,29.8,30.01,WSW,248,0.0,1.8,94,0.01,,,0.01,WUHU216HW,2013-01-13 21:27:00,
2013-01-13 13:32:00,31.5,30.0,30.01,SW,225,0.2,1.8,94,0.01,,,0.01,WUHU216HW,2013-01-13 21:32:00,
2013-01-13 13:37:00,31.7,30.2,30.01,WSW,248,0.9,1.1,94,0.01,,,0.01,WUHU216HW,2013-01-13 21:37:00,
2013-01-13 13:42:00,32.0,30.5,30.01,WSW,248,0.0,1.1,94,0.01,,,0.01,WUHU216HW,2013-01-13 21:42:00,
2013-01-13 13:47:00,32.0,30.5,30.02,WSW,248,0.0,0.9,94,0.01,,,0.01,WUHU216HW,2013-01-13 21:47:00,
2013-01-13 13:52:00,32.2,30.7,30.02,WSW,248,0.0,0.4,94,0.01,,,0.01,WUHU216HW,2013-01-13 21:52:00,
2013-01-13 13:57:00,32.4,30.9,30.02,WSW,248,0.0,0.4,94,0.00,,,0.01,WUHU216HW,2013-01-13 21:57:00,
2013-01-13 14:02:00,32.4,30.9,30.02,SW,225,0.0,0.7,94,0.00,,,0.01,WUHU216HW,2013-01-13 22:02:00,
2013-01-13 14:07:00,32.6,31.1,30.02,WSW,248,0.0,0.7,94,0.00,,,0.01,WUHU216HW,2013-01-13 22:07:00,
2013-01-13 14:12:00,32.8,31.2,30.02,WSW,248,0.0,0.0,94,0.00,,,0.01,WUHU216HW,2013-01-13 22:12:00,
2013-01-13 14:17:00,32.8,31.2,30.02,WSW,248,0.0,0.0,94,0.00,,,0.01,WUHU216HW,2013-01-13 22:17:00,
2013-01-13 14:22:00,32.8,31.0,30.02,SW,225,0.4,0.4,93,0.00,,,0.01,WUHU216HW,2013-01-13 22:22:00,
2013-01-13 14:27:00,32.8,31.0,30.02,SSW,203,0.7,1.1,93,0.00,,,0.01,WUHU216HW,2013-01-13 22:27:00,
2013-01-13 14:32:00,32.8,31.0,30.02,South,180,0.0,1.1,93,0.00,,,0.01,WUHU216HW,2013-01-13 22:32:00,
2013-01-13 14:37:00,32.8,31.0,30.02,South,180,0.4,1.1,93,0.00,,,0.01,WUHU216HW,2013-01-13 22:37:00,
2013-01-13 14:42:00,32.8,31.0,30.02,South,180,0.0,0.4,93,0.00,,,0.01,WUHU216HW,2013-01-13 22:42:00,
2013-01-13 14:47:00,32.8,31.0,30.02,South,180,0.0,0.4,93,0.00,,,0.01,WUHU216HW,2013-01-13 22:47:00,
2013-01-13 14:52:00,32.8,31.0,30.02,South,180,0.0,0.2,93,0.00,,,0.01,WUHU216HW,2013-01-13 22:52:00,
2013-01-13 14:57:00,32.9,31.2,30.02,South,180,0.0,0.2,93,0.00,,,0.01,WUHU216HW,2013-01-13 22:57:00,
2013-01-13 15:02:00,32.9,31.2,30.01,South,180,0.0,0.0,93,0.00,,,0.01,WUHU216HW,2013-01-13 23:02:00,
2013-01-13 15:07:00,32.9,31.2,30.01,South,180,0.0,0.0,93,0.00,,,0.01,WUHU216HW,2013-01-13 23:07:00,
2013-01-13 15:12:00,32.9,31.2,30.01,South,180,0.0,0.0,93,0.00,,,0.01,WUHU216HW,2013-01-13 23:12:00,
2013-01-13 15:17:00,32.8,31.0,30.01,South,180,0.0,0.0,93,0.00,,,0.01,WUHU216HW,2013-01-13 23:17:00,
2013-01-13 15:22:00,32.8,31.0,30.02,South,180,0.0,0.0,93,0.00,,,0.01,WUHU216HW,2013-01-13 23:22:00,
2013-01-13 15:27:00,32.9,31.2,30.01,SSW,203,0.0,0.0,93,0.00,,,0.01,WUHU216HW,2013-01-13 23:27:00,
2013-01-13 15:32:00,32.8,31.0,30.02,South,180,0.0,0.0,93,0.00,,,0.01,WUHU216HW,2013-01-13 23:32:00,
2013-01-13 15:37:00,32.8,31.0,30.01,South,180,0.2,0.4,93,0.00,,,0.01,WUHU216HW,2013-01-13 23:37:00,
2013-01-13 15:42:00,32.6,30.8,30.01,South,180,0.0,0.4,93,0.00,,,0.01,WUHU216HW,2013-01-13 23:42:00,
2013-01-13 15:47:00,32.6,30.8,30.02,South,180,0.0,0.0,93,0.00,,,0.01,WUHU216HW,2013-01-13 23:47:00,
2013-01-13 15:52:00,32.4,30.6,30.02,South,180,0.0,0.0,93,0.00,,,0.01,WUHU216HW,2013-01-13 23:52:00,
2013-01-13 15:57:00,32.4,30.6,30.02,South,180,0.0,0.0,93,0.00,,,0.01,WUHU216HW,2013-01-13 23:57:00,
2013-01-13 16:02:00,32.2,30.4,30.02,South,180,0.0,0.0,93,0.00,,,0.01,WUHU216HW,2013-01-14 00:02:00,
2013-01-13 16:07:00,32.0,30.2,30.02,South,180,0.0,0.0,93,0.00,,,0.01,WUHU216HW,2013-01-14 00:07:00,
2013-01-13 16:12:00,32.0,30.2,30.02,South,180,0.0,0.0,93,0.00,,,0.01,WUHU216HW,2013-01-14 00:12:00,
2013-01-13 16:17:00,31.9,30.1,30.02,South,180,0.0,0.9,93,0.00,,,0.01,WUHU216HW,2013-01-14 00:17:00,
2013-01-13 16:22:00,31.7,29.9,30.02,South,180,0.0,0.9,93,0.00,,,0.01,WUHU216HW,2013-01-14 00:22:00,
2013-01-13 16:27:00,31.5,29.7,30.03,South,180,0.0,0.0,93,0.00,,,0.01,WUHU216HW,2013-01-14 00:27:00,
2013-01-13 16:32:00,31.3,29.5,30.02,South,180,0.0,0.0,93,0.00,,,0.01,WUHU216HW,2013-01-14 00:32:00,
2013-01-13 16:37:00,31.1,29.3,30.02,South,180,0.0,0.0,93,0.00,,,0.01,WUHU216HW,2013-01-14 00:37:00,
2013-01-13 16:42:00,31.0,29.2,30.02,South,180,0.0,0.0,93,0.00,,,0.01,WUHU216HW,2013-01-14 00:42:00,
2013-01-13 16:47:00,30.8,29.0,30.02,South,180,0.0,0.0,93,0.00,,,0.01,WUHU216HW,2013-01-14 00:47:00,
2013-01-13 16:52:00,30.6,28.8,30.02,South,180,0.0,0.0,93,0.00,,,0.01,WUHU216HW,2013-01-14 00:52:00,
2013-01-13 16:57:00,30.4,28.6,30.02,South,180,0.0,0.0,93,0.00,,,0.01,WUHU216HW,2013-01-14 00:57:00,
2013-01-13 17:02:00,30.2,28.4,30.03,South,180,0.0,0.0,93,0.00,,,0.01,WUHU216HW,2013-01-14 01:02:00,
2013-01-13 17:07:00,30.1,28.3,30.03,South,180,0.0,0.0,93,0.00,,,0.01,WUHU216HW,2013-01-14 01:07:00,
2013-01-13 17:12:00,29.9,28.1,30.03,South,180,0.0,0.0,93,0.00,,,0.01,WUHU216HW,2013-01-14 01:12:00,
2013-01-13 17:17:00,29.7,27.9,30.03,South,180,0.0,0.0,93,0.00,,,0.01,WUHU216HW,2013-01-14 01:17:00,
2013-01-13 17:22:00,29.5,27.7,30.03,South,180,0.0,0.0,93,0.00,,,0.01,WUHU216HW,2013-01-14 01:22:00,
2013-01-13 17:27:00,29.3,27.5,30.03,South,180,0.0,0.0,93,0.00,,,0.01,WUHU216HW,2013-01-14 01:27:00,
2013-01-13 17:32:00,29.3,27.5,30.04,South,180,0.0,0.0,93,0.00,,,0.01,WUHU216HW,2013-01-14 01:32:00,
2013-01-13 17:37:00,29.2,27.4,30.04,South,180,0.0,0.0,93,0.00,,,0.01,WUHU216HW,2013-01-14 01:37:00,
2013-01-13 17:42:00,29.0,27.2,30.04,South,180,0.0,0.0,93,0.00,,,0.01,WUHU216HW,2013-01-14 01:42:00,
2013-01-13 17:47:00,28.8,27.0,30.03,South,180,0.0,0.0,93,0.00,,,0.01,WUHU216HW,2013-01-14 01:47:00,
2013-01-13 17:52:00,28.6,26.8,30.03,South,180,0.0,0.0,93,0.00,,,0.01,WUHU216HW,2013-01-14 01:52:00,
2013-01-13 17:57:00,28.6,26.8,30.03,South,180,0.0,0.0,93,0.00,,,0.01,WUHU216HW,2013-01-14 01:57:00,
2013-01-13 18:02:00,28.4,26.6,30.03,South,180,0.0,0.0,93,0.00,,,0.01,WUHU216HW,2013-01-14 02:02:00,
2013-01-13 18:07:00,28.4,26.6,30.03,South,180,0.0,0.0,93,0.00,,,0.01,WUHU216HW,2013-01-14 02:07:00,
2013-01-13 18:12:00,29.2,27.6,30.03,South,180,0.0,0.0,94,0.00,,,0.01,WUHU216HW,2013-01-14 02:12:00,
2013-01-13 18:17:00,31.1,29.9,30.03,South,180,0.0,0.0,95,0.00,,,0.01,WUHU216HW,2013-01-14 02:17:00,
2013-01-13 18:22:00,34.2,32.9,30.02,South,180,0.0,0.0,95,0.00,,,0.01,WUHU216HW,2013-01-14 02:22:00,
2013-01-13 18:27:00,36.4,34.7,30.02,South,180,0.0,0.0,94,0.00,,,0.01,WUHU216HW,2013-01-14 02:27:00,
2013-01-13 18:32:00,37.8,35.9,30.02,South,180,0.0,0.0,93,0.00,,,0.01,WUHU216HW,2013-01-14 02:32:00,
2013-01-13 18:37:00,38.0,35.8,30.02,South,180,0.0,0.0,92,0.00,,,0.01,WUHU216HW,2013-01-14 02:37:00,
2013-01-13 18:42:00,37.4,34.7,30.01,South,180,0.0,0.0,90,0.00,,,0.01,WUHU216HW,2013-01-14 02:42:00,
2013-01-13 18:47:00,36.0,33.3,30.01,South,180,0.0,0.0,90,0.00,,,0.01,WUHU216HW,2013-01-14 02:47:00,
2013-01-13 18:52:00,34.7,32.3,30.01,South,180,0.0,0.0,91,0.00,,,0.01,WUHU216HW,2013-01-14 02:52:00,
2013-01-13 18:57:00,33.5,31.1,30.02,South,180,0.0,0.0,91,0.00,,,0.01,WUHU216HW,2013-01-14 02:57:00,
2013-01-13 19:02:00,32.4,30.3,30.02,South,180,0.0,0.0,92,0.00,,,0.01,WUHU216HW,2013-01-14 03:02:00,
2013-01-13 19:07:00,31.7,29.4,30.03,South,180,0.0,0.0,91,0.00,,,0.01,WUHU216HW,2013-01-14 03:07:00,
2013-01-13 19:12:00,31.0,28.7,30.02,South,180,0.0,0.0,91,0.00,,,0.01,WUHU216HW,2013-01-14 03:12:00,
2013-01-13 19:17:00,30.6,28.4,30.03,South,180,0.0,0.0,91,0.00,,,0.01,WUHU216HW,2013-01-14 03:17:00,
2013-01-13 19:22:00,30.2,28.0,30.04,South,180,0.0,0.0,91,0.00,,,0.01,WUHU216HW,2013-01-14 03:22:00,
2013-01-13 19:27:00,29.9,27.6,30.04,South,180,0.0,0.0,91,0.00,,,0.01,WUHU216HW,2013-01-14 03:27:00,
2013-01-13 19:32:00,29.7,27.7,30.04,South,180,0.0,0.0,92,0.00,,,0.01,WUHU216HW,2013-01-14 03:32:00,
2013-01-13 19:37:00,29.5,27.6,30.04,South,180,0.0,0.0,92,0.00,,,0.01,WUHU216HW,2013-01-14 03:37:00,
2013-01-13 19:42:00,29.5,27.6,30.04,South,180,0.0,0.0,92,0.00,,,0.01,WUHU216HW,2013-01-14 03:42:00,
2013-01-13 19:47:00,29.3,27.4,30.04,South,180,0.0,0.0,92,0.00,,,0.01,WUHU216HW,2013-01-14 03:47:00,
2013-01-13 19:52:00,29.2,27.2,30.04,South,180,0.0,0.0,92,0.00,,,0.01,WUHU216HW,2013-01-14 03:52:00,
2013-01-13 19:57:00,29.2,27.2,30.04,South,180,0.0,0.0,92,0.00,,,0.01,WUHU216HW,2013-01-14 03:57:00,
2013-01-13 20:02:00,29.2,27.2,30.04,South,180,0.0,0.0,92,0.00,,,0.01,WUHU216HW,2013-01-14 04:02:00,
2013-01-13 20:07:00,29.2,27.4,30.04,South,180,0.0,0.0,93,0.00,,,0.01,WUHU216HW,2013-01-14 04:07:00,
2013-01-13 20:12:00,29.0,27.2,30.04,South,180,0.0,0.0,93,0.00,,,0.01,WUHU216HW,2013-01-14 04:12:00,
2013-01-13 20:17:00,29.0,27.2,30.05,South,180,0.0,0.0,93,0.00,,,0.01,WUHU216HW,2013-01-14 04:17:00,
2013-01-13 20:22:00,29.0,27.2,30.05,South,180,0.0,0.0,93,0.00,,,0.01,WUHU216HW,2013-01-14 04:22:00,
2013-01-13 20:27:00,29.0,27.2,30.05,South,180,0.0,0.0,93,0.00,,,0.01,WUHU216HW,2013-01-14 04:27:00,
2013-01-13 20:32:00,29.0,27.2,30.04,South,180,0.0,0.0,93,0.00,,,0.01,WUHU216HW,2013-01-14 04:32:00,
2013-01-13 20:37:00,28.8,27.0,30.04,South,180,0.0,0.0,93,0.00,,,0.01,WUHU216HW,2013-01-14 04:37:00,
2013-01-13 20:42:00,28.8,27.0,30.04,South,180,0.0,0.4,93,0.00,,,0.01,WUHU216HW,2013-01-14 04:42:00,
2013-01-13 20:47:00,28.6,26.8,30.04,South,180,0.0,0.4,93,0.00,,,0.01,WUHU216HW,2013-01-14 04:47:00,
2013-01-13 20:52:00,28.8,27.0,30.04,South,180,0.0,0.0,93,0.00,,,0.01,WUHU216HW,2013-01-14 04:52:00,
2013-01-13 20:57:00,28.8,27.0,30.04,South,180,0.0,0.0,93,0.00,,,0.01,WUHU216HW,2013-01-14 04:57:00,
2013-01-13 21:00:00,28.8,27.0,30.04,South,180,0.0,0.0,93,0.00,,,0.01,WUHU216HW,2013-01-14 05:00:00,
2013-01-13 21:02:00,28.8,27.0,30.04,South,180,0.0,0.0,93,0.00,,,0.01,WUHU216HW,2013-01-14 05:02:00,
2013-01-13 21:03:00,28.8,27.0,30.04,South,180,0.0,0.0,93,0.00,,,0.01,WUHU216HW,2013-01-14 05:03:00,
2013-01-13 21:08:00,28.8,27.0,30.05,South,180,0.0,0.0,93,0.00,,,0.01,WUHU216HW,2013-01-14 05:08:00,
2013-01-13 21:13:00,28.8,27.0,30.05,South,180,0.0,0.0,93,0.00,,,0.01,WUHU216HW,2013-01-14 05:13:00,
2013-01-13 21:18:00,28.8,27.0,30.05,South,180,0.0,0.0,93,0.00,,,0.01,WUHU216HW,2013-01-14 05:18:00,
2013-01-13 21:23:00,28.8,27.0,30.05,South,180,0.0,0.9,93,0.00,,,0.01,WUHU216HW,2013-01-14 05:23:00,
2013-01-13 21:28:00,29.0,27.2,30.04,South,180,0.0,0.9,93,0.00,,,0.01,WUHU216HW,2013-01-14 05:28:00,
2013-01-13 21:33:00,29.0,27.2,30.04,South,180,0.0,0.9,93,0.00,,,0.01,WUHU216HW,2013-01-14 05:33:00,
2013-01-13 21:38:00,29.0,27.2,30.05,South,180,0.0,0.4,93,0.00,,,0.01,WUHU216HW,2013-01-14 05:38:00,
2013-01-13 21:43:00,29.2,27.4,30.06,South,180,0.0,0.4,93,0.00,,,0.01,WUHU216HW,2013-01-14 05:43:00,
2013-01-13 21:48:00,29.2,27.4,30.04,South,180,1.1,1.1,93,0.00,,,0.01,WUHU216HW,2013-01-14 05:48:00,
2013-01-13 21:53:00,29.2,27.4,30.04,South,180,0.0,1.1,93,0.00,,,0.01,WUHU216HW,2013-01-14 05:53:00,
2013-01-13 21:58:00,29.2,27.4,30.04,South,180,0.7,1.1,93,0.00,,,0.01,WUHU216HW,2013-01-14 05:58:00,
2013-01-13 22:03:00,29.2,27.4,30.05,South,180,0.0,0.9,93,0.00,,,0.01,WUHU216HW,2013-01-14 06:03:00,
2013-01-13 22:08:00,29.2,27.4,30.06,South,180,0.0,0.7,93,0.00,,,0.01,WUHU216HW,2013-01-14 06:08:00,
2013-01-13 22:13:00,29.2,27.6,30.05,South,180,0.0,0.0,94,0.00,,,0.01,WUHU216HW,2013-01-14 06:13:00,
2013-01-13 22:18:00,29.2,27.4,30.05,South,180,0.0,0.0,93,0.00,,,0.01,WUHU216HW,2013-01-14 06:18:00,
2013-01-13 22:23:00,29.2,27.6,30.05,South,180,0.0,0.0,94,0.00,,,0.01,WUHU216HW,2013-01-14 06:23:00,
2013-01-13 22:28:00,29.2,27.6,30.05,South,180,0.0,0.0,94,0.00,,,0.01,WUHU216HW,2013-01-14 06:28:00,
2013-01-13 22:33:00,29.2,27.6,30.05,South,180,0.0,0.0,94,0.00,,,0.01,WUHU216HW,2013-01-14 06:33:00,
2013-01-13 22:38:00,29.2,27.6,30.05,South,180,0.0,0.0,94,0.00,,,0.01,WUHU216HW,2013-01-14 06:38:00,
2013-01-13 22:43:00,29.2,27.6,30.05,South,180,0.0,0.0,94,0.00,,,0.01,WUHU216HW,2013-01-14 06:43:00,
2013-01-13 22:48:00,29.2,27.6,30.05,South,180,0.0,0.0,94,0.00,,,0.01,WUHU216HW,2013-01-14 06:48:00,
2013-01-13 22:53:00,29.2,27.6,30.05,South,180,0.0,0.0,94,0.00,,,0.01,WUHU216HW,2013-01-14 06:53:00,
2013-01-13 22:58:00,29.2,27.6,30.05,South,180,0.0,0.0,94,0.00,,,0.01,WUHU216HW,2013-01-14 06:58:00,
2013-01-13 23:03:00,29.2,27.6,30.05,South,180,0.0,0.0,94,0.00,,,0.01,WUHU216HW,2013-01-14 07:03:00,
2013-01-13 23:08:00,29.2,27.6,30.04,South,180,0.0,0.4,94,0.00,,,0.01,WUHU216HW,2013-01-14 07:08:00,
2013-01-13 23:13:00,29.3,27.8,30.04,South,180,0.0,0.4,94,0.00,,,0.01,WUHU216HW,2013-01-14 07:13:00,
2013-01-13 23:18:00,29.3,27.8,30.04,South,180,0.0,0.0,94,0.00,,,0.01,WUHU216HW,2013-01-14 07:18:00,
2013-01-13 23:23:00,29.3,27.8,30.04,South,180,0.0,0.0,94,0.00,,,0.01,WUHU216HW,2013-01-14 07:23:00,
2013-01-13 23:28:00,29.3,27.8,30.04,South,180,0.0,0.0,94,0.00,,,0.01,WUHU216HW,2013-01-14 07:28:00,
2013-01-13 23:33:00,29.3,27.8,30.03,South,180,0.0,0.0,94,0.00,,,0.01,WUHU216HW,2013-01-14 07:33:00,
2013-01-13 23:38:00,29.3,27.8,30.04,South,180,0.0,0.0,94,0.00,,,0.01,WUHU216HW,2013-01-14 07:38:00,
2013-01-13 23:43:00,29.2,27.6,30.04,South,180,0.0,0.0,94,0.00,,,0.01,WUHU216HW,2013-01-14 07:43:00,
2013-01-13 23:48:00,29.2,27.6,30.03,South,180,0.0,0.0,94,0.00,,,0.01,WUHU216HW,2013-01-14 07:48:00,
2013-01-13 23:53:00,29.2,27.6,30.04,South,180,0.0,0.0,94,0.00,,,0.01,WUHU216HW,2013-01-14 07:53:00,
2013-01-13 23:58:00,29.2,27.6,30.04,South,180,0.0,0.0,94,0.00,,,0.01,WUHU216HW,2013-01-14 07:58:00,